Printer-friendly version

IAU Minor Planet Center

Minor Planet Center

MPEC 2007-Y19 : 2007 XF25

The following Minor Planet Electronic Circular may be linked-to from your own Web pages, but must not otherwise be redistributed electronically.


Read MPEC 2007-Y18 Read MPEC 2007-Y20


M.P.E.C. 2007-Y19                                Issued 2007 Dec. 18, 05:21 UT

     The Minor Planet Electronic Circulars contain information on unusual
         minor planets and routine data on comets.  They are published
   on behalf of Commission 20 of the International Astronomical Union by the
          Minor Planet Center, Smithsonian Astrophysical Observatory,
                          Cambridge, MA 02138, U.S.A.

             Prepared using the Tamkin Foundation Computer Network

                              MPC@CFA.HARVARD.EDU
          URL http://www.cfa.harvard.edu/iau/mpc.html  ISSN 1523-6714

                                   2007 XF25

Observations:
     K07X25F* C2007 12 15.32609 07 35 21.81 +28 11 56.0          19.9   EY019704
     K07X25F  C2007 12 15.35183 07 35 17.22 +28 10 27.1          19.9   EY019704
     K07X25F  C2007 12 15.36467 07 35 14.89 +28 09 43.7          20.3   EY019704
     K07X25F  C2007 12 15.37751 07 35 12.58 +28 08 59.0          19.9   EY019704
     K07X25F  C2007 12 17.41858 07 29 12.66 +26 07 06.8          20.1 V EY019G96
     K07X25F  C2007 12 17.42102 07 29 12.19 +26 06 57.7          20.0 V EY019G96
     K07X25F  C2007 12 17.42351 07 29 11.68 +26 06 48.3          20.2 V EY019G96
     K07X25F  C2007 12 17.42596 07 29 11.22 +26 06 39.2          20.0 V EY019G96

Observer details:
704 Lincoln Laboratory ETS, New Mexico.  Observers M. Bezpalko, D. Torres,
    R. Kracke, G. Spitz, J. Kistler.  Measurers J. Stuart, S. Scruggs.  1.0-m
    f/2.15 reflector + CCD.
G96 Mt. Lemmon Survey.  Observer E. Beshore.  Measurers E. C. Beshore,
    A. Boattini, G. J. Garradd, A. R. Gibbs, A. D. Grauer, R. E. Hill,
    R. A. Kowalski, S. M. Larson, R. H. McNaught.  1.5-m reflector + CCD.

Orbital elements:
2007 XF25                                                Earth MOID = 0.1615 AU
Epoch 2007 Oct. 27.0 TT = JDT 2454400.5                 MPC
M 224.30047              (2000.0)            P               Q
n   0.70290013     Peri.  290.80332     -0.80267049     +0.36673577
a   1.2527766      Node   273.31063     -0.19381066     -0.90619625
e   0.1243187      Incl.   28.10779     -0.56405453     -0.21050710
P   1.40           H   20.7           G   0.15           U   9
Residuals in seconds of arc
071215 704  0.1-  0.2+    071215 704  0.0   0.1-    071217 G96  0.3-  0.1-
071215 704  0.2+  0.4-    071217 G96  0.2+  0.0     071217 G96  0.1-  0.0
071215 704  0.1-  0.3+    071217 G96  0.2+  0.0

Ephemeris:
2007 XF25                a,e,i = 1.25, 0.12, 28                  q = 1.0970
Date    TT    R. A. (2000) Decl.     Delta      r     Elong.  Phase     V
2007 12 16    07 33.43   +27 32.9    0.345    1.299   152.3    20.6    20.0
2007 12 26    07 00.32   +16 02.7    0.303    1.281   167.3     9.7    19.3
2008 01 05    06 23.74   +02 40.2    0.296    1.263   158.1    16.9    19.5
2008 01 15    05 51.74   -09 01.5    0.320    1.243   139.0    31.2    20.0
2008 01 25    05 29.22   -17 09.0    0.366    1.224   123.3    42.2    20.6
2008 02 04    05 16.55   -22 13.3    0.421    1.205   111.5    49.6    21.1
2008 02 14    05 12.20   -25 19.5    0.476    1.187   102.7    54.3    21.4
2008 02 24    05 14.28   -27 18.2    0.527    1.169    96.0    57.3    21.7
2008 03 05    05 21.25   -28 38.9    0.570    1.152    91.0    59.4    21.9

Sonia Keys                   (C) Copyright 2007 MPC           M.P.E.C. 2007-Y19

Read MPEC 2007-Y18 Read MPEC 2007-Y20


Our Web policy. Index to the CBAT/MPC/ICQ pages.


Valid HTML 4.01!